EW0641 Weather Reports


Display with metric or nautical units.
time (UTC)temp
F
wind
direction
speed
MPH
gust
MPH
rain 1hr
in
rain 24hr
in
rain mn
in
humidity
%
barometer
mb
20260904133023 70 206 0.0 0.0 0.00 0.03 0.01 96 1014.6
20260904131523 70 206 0.0 0.0 0.00 0.03 0.01 96 1014.8
20260904130023 70 206 0.0 0.0 0.00 0.03 0.01 96 1014.9
20260904124526 70 207 0.0 0.0 0.00 0.03 0.01 96 1014.8
20260904123021 70 206 0.0 0.0 0.00 0.03 0.01 96 1014.5
20260904121520 70 207 0.0 0.0 0.00 0.03 0.01 96 1014.9
20260904120027 70 206 0.0 0.0 0.00 0.03 0.01 96 1014.6
20260904114519 70 207 0.0 0.0 0.00 0.03 0.01 96 1014.5
20260904113019 70 205 0.0 0.0 0.00 0.03 0.01 96 1014.6
20260904111518 70 205 0.0 0.0 0.00 0.03 0.01 96 1014.1
20260904110017 70 213 0.0 0.0 0.00 0.03 0.01 96 1013.9
20260904104521 70 213 0.0 0.0 0.00 0.03 0.01 96 1014.0
20260904103017 70 135 0.0 0.0 0.00 0.03 0.01 96 1014.0
20260904101515 70 135 0.0 0.0 0.00 0.03 0.01 96 1013.4
20260904100020 70 135 0.0 0.0 0.00 0.03 0.01 96 1013.3
20260904094515 70 116 0.0 0.0 0.00 0.05 0.01 96 1012.9
20260904093035 70 143 0.0 0.0 0.00 0.05 0.01 96 1013.1
20260904091512 70 144 0.0 0.0 0.00 0.05 0.01 96 1013.7
20260904090011 70 96 0.0 0.0 0.00 0.05 0.01 96 1013.9
20260904084511 70 140 0.0 0.0 0.00 0.15 0.01 96 1013.7
20260904083010 70 111 0.0 0.0 0.00 0.15 0.01 96 1014.0
20260904081510 71 106 0.0 0.0 0.00 0.15 0.01 96 1013.9
20260904080009 70 230 0.0 0.0 0.00 0.15 0.01 96 1013.4
20260904074508 70 229 0.0 0.0 0.00 0.17 0.01 96 1013.3
20260904073025 71 230 0.0 0.0 0.00 0.17 0.01 96 1013.4
20260904071505 70 230 0.0 0.0 0.00 0.17 0.01 96 1013.5
20260904070007 70 230 0.0 0.0 0.00 0.17 0.01 96 1013.9
20260904064505 70 230 0.0 0.0 0.00 0.17 0.01 96 1014.0
20260904063001 70 230 0.0 0.0 0.00 0.17 0.01 96 1014.1
20260904061604 70 230 0.0 0.0 0.01 0.17 0.01 96 1013.9
20260904060100 70 230 0.0 0.0 0.01 0.17 0.01 96 1014.1
20260904054602 70 230 0.0 0.0 0.01 0.28 0.01 96 1014.0
20260904053137 71 230 0.0 0.0 0.01 0.28 0.01 96 1014.4
20260904051600 71 230 0.0 0.0 0.00 0.27 0.00 96 1014.3
20260904050059 70 230 0.0 0.0 0.00 0.27 0.00 96 1014.4
20260904044555 70 230 0.0 0.0 0.00 0.56 0.00 96 1014.3
20260904043053 70 230 0.0 0.0 0.00 0.56 0.00 96 1014.5
20260904041601 70 230 0.0 0.0 0.00 0.56 0.00 96 1014.2
20260904040048 70 231 0.0 0.0 0.00 0.56 0.00 95 1013.9
20260904034548 70 230 0.0 0.0 0.00 0.75 0.00 96 1013.8
20260904033100 70 230 0.0 0.0 0.00 0.75 0.00 95 1013.8
20260904031545 70 230 0.0 0.0 0.00 0.75 0.00 95 1013.9
20260904030043 70 231 0.0 0.0 0.00 0.75 0.00 95 1013.7
20260904024543 70 231 0.0 0.0 0.00 0.75 0.00 95 1013.7
20260904023040 70 231 0.0 0.0 0.00 0.75 0.00 95 1013.7
20260904021540 71 230 0.0 0.0 0.00 0.75 0.00 95 1013.8
20260904020038 70 231 0.0 0.0 0.00 0.75 0.00 95 1013.5
20260904013038 71 230 0.0 0.0 0.00 0.75 0.02 95 1013.4
20260904011538 71 230 0.0 0.0 0.00 0.75 0.02 95 1013.2
20260904010037 71 232 0.0 0.0 0.00 0.75 0.02 95 1013.0
20260904004536 71 232 0.0 0.0 0.00 0.75 0.02 95 1013.1
20260904003039 71 232 0.0 0.0 0.00 0.75 0.02 95 1012.9
20260904001535 71 232 0.0 0.0 0.00 0.75 0.02 95 1012.5
20260904000034 71 232 0.0 0.0 0.00 0.75 0.02 95 1012.4
20260903234533 71 232 0.0 0.0 0.00 0.75 0.02 95 1012.6
20260903233032 71 232 0.0 0.0 0.00 0.75 0.02 95 1012.1
20260903231529 71 222 0.0 0.0 0.00 0.75 0.02 95 1012.3
20260903230045 71 221 0.0 0.0 0.01 0.75 0.02 95 1012.5
20260903224530 71 220 0.0 0.0 0.01 0.75 0.02 95 1013.1
20260903223024 71 217 0.0 9.0 0.01 0.75 0.02 95 1013.1
20260903221523 71 331 0.0 0.0 0.01 0.75 0.02 95 1013.3
20260903220021 72 35 0.0 0.0 0.01 0.74 0.01 95 1013.4
20260903214534 71 35 0.0 0.0 0.01 0.74 0.01 94 1013.9
20260903213021 71 35 0.0 0.0 0.01 0.74 0.01 94 1014.4
20260903211516 71 34 0.0 0.0 0.01 0.74 0.01 94 1014.5
20260903210014 71 42 0.0 0.0 0.00 0.73 0.00 93 1015.1
20260903201542 80 108 0.0 0.0 0.00 0.73 0.55 81 1011.0
20260903200043 84 63 0.0 4.0 0.00 0.73 0.55 75 1011.0
20260903194542 85 234 0.0 0.0 0.00 0.73 0.55 74 1010.2
20260903193039 85 234 0.0 0.0 0.00 0.73 0.55 73 1011.0
20260903191537 86 234 0.0 2.0 0.00 0.73 0.55 72 1011.4
20260903190042 86 223 0.0 0.0 0.00 0.73 0.55 71 1011.4
20260903184536 86 224 0.0 0.0 0.00 0.73 0.55 71 1011.7
20260903183033 85 216 0.0 0.0 0.00 0.73 0.55 72 1012.0
20260903181528 83 227 0.0 0.0 0.00 0.73 0.55 74 1011.8
20260903180047 81 210 0.0 0.0 0.00 0.73 0.55 76 1011.9
20260903174525 81 172 0.0 0.0 0.00 0.73 0.55 76 1012.3
20260903173031 80 67 0.0 2.0 0.00 0.73 0.55 76 1012.5
20260903171524 80 99 0.0 4.0 0.00 0.73 0.55 76 1012.6
20260903170027 77 98 0.0 0.0 0.00 0.73 0.55 80 1012.2
20260903164522 75 49 0.0 0.0 0.00 0.73 0.55 86 1013.1
20260903163020 74 78 0.0 0.0 0.00 0.73 0.55 85 1013.9
20260903161527 78 51 5.0 20.0 0.00 0.73 0.55 87 1014.2
20260903160021 79 290 0.0 0.0 0.00 0.73 0.55 90 1013.7
20260903154515 80 291 0.0 0.0 0.00 0.73 0.55 89 1013.7
20260903153017 80 290 0.0 0.0 0.00 0.73 0.55 89 1013.3
20260903151513 81 246 0.0 0.0 0.00 0.73 0.55 88 1012.7
20260903150014 81 246 0.0 0.0 0.00 0.73 0.55 87 1012.1
20260903144515 81 246 0.0 0.0 0.00 0.73 0.55 87 1012.4
20260903143013 81 246 0.0 0.0 0.00 0.73 0.55 87 1012.5
20260903141513 81 246 0.0 0.0 0.00 0.73 0.55 87 1012.3
20260903140009 80 257 0.0 0.0 0.00 0.73 0.55 89 1012.4
20260903134508 80 277 0.0 0.0 0.00 0.73 0.55 91 1012.6